Regional Weather Roundup
Issued by NWS Little Rock, AR

Home | Current Version | Previous Version | Text Only | Print | Product List | Glossary Off
Versions: 1 2 3 4 5 6 7 8 9 10 11 12 13 14 15 16 17 18 19 20 21 22 23 24 25 26 27 28 29 30 31 32 33 34 35 36 37 38 39 40 41 42 43 44 45 46 47

000
ASUS44 KLZK 271105
RWRLZK

WEATHER ROUNDUP FOR ARKANSAS
NATIONAL WEATHER SERVICE LITTLE ROCK AR
500 AM CST SAT DEC 27 2014

NOTE: "FAIR" INDICATES FEW OR NO CLOUDS BELOW 12,000 FEET WITH NO
SIGNIFICANT WEATHER AND/OR OBSTRUCTIONS TO VISIBILITY.

ARZ001-003-010-029-271200-
NORTHWEST ARKANSAS

CITY           SKY/WX    TMP DP  RH WIND       PRES   REMARKS
FAYETTEVILLE   CLOUDY    42  41  96 NW5       30.10R
FORT SMITH     LGT RAIN  47  44  90 NW15      30.09R FOG
HARRISON       CLOUDY    49  49 100 S6        30.05F FOG
BENTONVILLE    CLOUDY    41  37  87 N9        30.11R
ROGERS         LGT RAIN  41  40  96 NW12      30.10R
SILOAM SPGS    CLOUDY    39  34  81 N14       30.15R
HIGHFILL       RAIN      41  32  70 W9        30.12R
$$

ARZ004-005-016-271200-
NORTH CENTRAL ARKANSAS

CITY           SKY/WX    TMP DP  RH WIND       PRES   REMARKS
BATESVILLE     CLOUDY    52  50  93 S3        30.09S
FLIPPIN        CLOUDY    48  46  93 E3        30.06S
MTN HOME       CLOUDY    49  49 100 CALM      30.06S FOG
$$

ARZ040-041-271200-
WEST CENTRAL ARKANSAS

CITY           SKY/WX    TMP DP  RH WIND       PRES   REMARKS
MENA           CLOUDY    54  54 100 CALM      30.04S
MOUNT IDA      LGT RAIN  53  52  96 CALM      30.02F FOG
$$

ARZ009-017-025-026-028-271200-
NORTHEAST ARKANSAS

CITY           SKY/WX    TMP DP  RH WIND       PRES   REMARKS
CORNING        PTSUNNY   48  48 100 S6        30.11S FOG
JONESBORO      CLOUDY    50  49  96 S7        30.11F
NEWPORT        RAIN      50  50 100 SE9       30.11F FOG
WALNUT RIDGE   CLOUDY    48  46  93 S9        30.09R
BLYTHEVILLE    CLOUDY    49  48  97 NE3       30.14R
$$

ARZ022-023-033-042-044-271200-
CENTRAL ARKANSAS

CITY           SKY/WX    TMP DP  RH WIND       PRES   REMARKS
LITTLE ROCK    LGT RAIN  54  51  90 SE7       30.08F FOG
N LITTLE ROCK    N/A     53  53 100 SE6       30.08F
SEARCY         LGT RAIN  52  52 100 SE6       30.10F FOG
HOT SPRINGS    RAIN      54  53  97 E6        30.05S FOG
RUSSELLVILLE   CLOUDY    52  51  97 CALM      30.05S
CLINTON        FOG       48  48 100 CALM      30.09F VSB 1
$$

ARZ036-271200-
EAST ARKANSAS

CITY           SKY/WX    TMP DP  RH WIND       PRES   REMARKS
WEST MEMPHIS   CLOUDY    52  49  89 S9        30.11S
$$

ARZ050-053-066-070-073-271200-
SOUTHWEST ARKANSAS

CITY           SKY/WX    TMP DP  RH WIND       PRES   REMARKS
ARKADELPHIA    FOG       55  55 100 E5        30.06F VSB 1
CAMDEN         CLOUDY    57  54  88 CALM      30.06F FOG
TEXARKANA      CLOUDY    57  57 100 SE6       30.03S FOG
EL DORADO      RAIN      57  56  96 S5        30.05F FOG
DE QUEEN       CLOUDY    55  55 100 E5        30.01F FOG
$$

ARZ056-057-069-271200-
SOUTHEAST ARKANSAS

CITY           SKY/WX    TMP DP  RH WIND       PRES   REMARKS
PINE BLUFF     LGT RAIN  54  52  93 CALM      30.09S
STUTTGART      CLOUDY    52  48  87 N3        30.11S
MONTICELLO     CLOUDY    55  52  89 SE7       30.07F

$$





USA.gov is the U.S. government's official web portal to all federal, state and local government web resources and services.